Omak, WA

5:20 PM PDT on May 22, 2018 (GMT -0700)
Omak

Weather History for KOMK - March, 2013

Change the Weather History Date:

Friday, March 15, 2013

  Actual Average Record
Temperature  
Mean Temperature 47 °F 41 °F  
Max Temperature 63 °F 52 °F 66 °F (1947)
Min Temperature 31 °F 30 °F 18 °F (1956)
Degree Days  
Heating Degree Days 18 24  
Month to date heating degree days 330 399  
Since 1 July heating degree days 4971 5260  
Cooling Degree Days 0 0  
Month to date cooling degree days 0 0  
Year to date cooling degree days 0 0  
Moisture  
Dew Point 30 °F    
Average Humidity 56    
Maximum Humidity 85    
Minimum Humidity 27    
Precipitation  
Precipitation 0.00 in 0.04 in 0.76 in (2015)
Month to date precipitation 0.50 0.65  
Year to date precipitation 1.29 3.95  
Sea Level Pressure  
Sea Level Pressure 30.08 in    
Wind  
Wind Speed 3 mph (WSW)    
Max Wind Speed 10 mph    
Max Gust Speed 14 mph    
Visibility 10 miles    
Events      
T = Trace of Precipitation, MM = Missing Value Source: NWS Daily Summary

Daily Weather History Graph

Daily Weather History Graph

Search for Another Location

Airport or City:

Astronomy

Mar. 15, 2013 Rise Set
Actual Time 7:10 AM PDT 7:03 PM PDT
Civil Twilight 6:39 AM PDT 7:35 PM PDT
Nautical Twilight 6:02 AM PDT 8:11 PM PDT
Astronomical Twilight 5:25 AM PDT 8:49 PM PDT
Moon 8:42 AM PDT (3/15) 11:46 PM PDT (3/15)
Length of Visible Light 12h 55m
Length of Day
11h 53m
Waxing Crescent, 16% of the Moon is Illuminated
Mar 15
Waxing Crescent
Mar 19
First Quarter
Mar 27
Full
Apr 2
Last Quarter
Apr 10
New

Hourly Weather History & Observations

Time (PDT) Temp. Windchill Dew Point Humidity Pressure Visibility Wind Dir Wind Speed Gust Speed Precip Events Conditions
12:53 AM 37.9 °F 35.5 °F 28.9 °F 70% 30.01 in 10.0 mi WSW 3.5 mph - N/A   Clear
1:53 AM 39.0 °F - 28.9 °F 67% 30.02 in 10.0 mi Calm Calm - N/A   Clear
2:53 AM 37.9 °F - 28.9 °F 70% 30.05 in 10.0 mi Calm Calm - N/A   Clear
3:53 AM 39.0 °F 36.8 °F 28.9 °F 67% 30.06 in 10.0 mi WSW 3.5 mph - N/A   Clear
4:53 AM 34.0 °F 29.8 °F 28.0 °F 79% 30.07 in 10.0 mi West 4.6 mph - N/A   Clear
5:53 AM 32.0 °F 26.4 °F 28.0 °F 85% 30.10 in 10.0 mi WNW 5.8 mph - N/A   Clear
6:53 AM 33.1 °F 27.7 °F 28.0 °F 82% 30.11 in 10.0 mi WNW 5.8 mph - N/A   Clear
7:53 AM 33.1 °F - 28.0 °F 82% 30.13 in 10.0 mi Calm Calm - N/A   Partly Cloudy
8:53 AM 37.0 °F - 30.9 °F 79% 30.15 in 10.0 mi Calm Calm - N/A   Clear
9:53 AM 46.0 °F - 33.1 °F 61% 30.16 in 10.0 mi Calm Calm - N/A   Mostly Cloudy
10:53 AM 48.0 °F - 32.0 °F 54% 30.16 in 10.0 mi Calm Calm - N/A   Overcast
11:53 AM 51.1 °F - 33.1 °F 50% 30.15 in 10.0 mi ESE 3.5 mph - N/A   Overcast
12:53 PM 55.0 °F - 35.1 °F 47% 30.14 in 10.0 mi Calm Calm - N/A   Overcast
1:53 PM 59.0 °F - 34.0 °F 39% 30.10 in 10.0 mi Calm Calm - N/A   Clear
2:53 PM 61.0 °F - 33.1 °F 35% 30.08 in 10.0 mi Variable 3.5 mph - N/A   Scattered Clouds
3:53 PM 61.0 °F - 33.1 °F 35% 30.06 in 10.0 mi NW 4.6 mph - N/A   Clear
4:53 PM 62.1 °F - 28.9 °F 29% 30.06 in 10.0 mi Variable 6.9 mph - N/A   Clear
5:53 PM 61.0 °F - 26.1 °F 26% 30.05 in 10.0 mi WSW 3.5 mph - N/A   Clear
6:53 PM 55.0 °F - 26.1 °F 33% 30.05 in 10.0 mi WSW 5.8 mph - N/A   Clear
7:53 PM 46.9 °F - 30.0 °F 52% 30.06 in 10.0 mi Calm Calm - N/A   Clear
8:53 PM 50.0 °F - 28.0 °F 43% 30.06 in 10.0 mi Calm Calm - N/A   Clear
9:53 PM 48.9 °F - 30.0 °F 48% 30.04 in 10.0 mi SW 4.6 mph - N/A   Clear
10:53 PM 46.9 °F - 30.0 °F 52% 30.04 in 10.0 mi SW 4.6 mph - N/A   Clear
11:53 PM 44.1 °F - 30.0 °F 58% 30.02 in 10.0 mi Calm Calm - N/A   Clear